SCP
0 -0 0 0 0 0 -0 -0 -0 -0 -0 -0 -0 -0 -0 -0 -0 -0 0 0 -0 0 0 0 0 0 0 0 0 0 0 -0 0 0 0 0 0 -0 -0 -0 -0 -0 -0 -0 -0 -0 0 0 -0
0 0 0 0 0 -0 0 -0 -0 -0 -0 -0 -0 -0 -0 -0 -0 -0 0 -0 -0 0 0 0 0 0 0 0 -0 0 0 0 0 0 0 0 0 -0 -0 -0 -0 -0 -0 -0 -0 -0 -0 0 -0
-0 0 0 0 -0 -0 -0 -0 -0 -0 -0 -0 -0 -0 -0 -0 -0 0 -0 0 0 0 -0 -0 0 -0 -0 -0 -0 -0 0 0 0 0 -0 0 0 -0 -0 -0 -0 -0 -0 -0 -0 -0 -0 0 -0
0 0 0 0 -0 -0 -0 -0 0 -0 -0 -0 -0 -0 -0 0 0 0 -0 0 -0 0 -0 -0 -0 -0 -0 -0 -0 -0 0 0 0 0 0 -0 -0 -0 -0 -0 -0 -0 -0 -0 -0 -0 -0 -0 -0
0 0 0 -0 -0 -0 -0 0 -0 -0 -0 -0 -0 -0 -0 0 -0 -0 0 0 0 0 -0 -0 -0 -0 -0 -0 -0 -0 0 0 0 0 -0 -0 -0 -0 -0 -0 0 -0 -0 -0 -0 -0 -0 -0 -0
0 0 -0 -0 -0 -0 0 0 -0 -0 -0 -0 -0 -0 -0 0 -0 -0 0 0 0 -0 -0 -0 -0 -0 -0 -0 -0 -0 -0 -0 -0 -0 -1 -1 -0 -0 0 -0 0 0 -0 -0 -0 -0 -0 -0 0
0 -0 -0 -0 -0 0 0 -0 0 0 -0 -0 -0 -0 -0 -0 -0 -0 0 0 -0 -0 -0 -0 -0 0 0 -0 -0 -0 -0 -0 -0 -0 -0 -0 -0 -0 -0 0 0 0 0 -0 -0 -0 -0 -0 0
0 0 -0 -0 -0 0 -0 -0 -0 0 0 0 -0 -0 -0 -0 0 -0 -0 0 0 -0 -0 -0 -0 -0 -0 -0 -0 -0 -0 -0 -0 -0 -0 -0 -0 0 -0 -0 0 0 0 -0 -0 0 -0 0 -0
0 -0 -0 -0 -0 0 0 -0 0 0 0 -0 0 -0 -0 -0 -0 -0 -0 -0 -0 -0 -0 -0 -0 -0 -0 -0 -0 -0 -0 -0 -0 0 -0 -0 -0 -0 -0 -0 0 -0 -0 0 0 0 0 0 -0
0 -0 0 0 -0 -0 -0 -0 0 0 0 0 -0 -0 -0 -0 -0 -0 -0 -0 -0 -0 -0 -0 -0 -0 -0 -0 -0 -0 -0 0 0 -0 0 -0 -0 0 -0 -0 0 -0 -0 0 0 0 0 -0 -0
-0 -0 -0 0 -0 -0 0 -0 0 0 0 0 -0 -0 -0 -0 -0 -0 -0 -0 -0 -0 0 -0 0 -0 -0 -0 -0 -0 0 0 0 -0 -0 -0 -0 -0 0 0 0 0 0 0 0 0 0 -0 0
-0 -0 -0 -0 -0 -0 -0 -0 -0 -0 -0 0 -0 -0 -0 -0 -0 -0 0 -0 -0 -0 -0 -0 -0 -0 0 -0 -0 -0 0 0 -0 -0 -0 -0 -0 -0 -0 -0 -0 -0 0 0 0 -0 -0 -0 -0
-0 0 -0 -0 0 0 0 -0 -0 -0 -0 -0 -0 -0 0 0 0 0 0 -0 0 -0 -0 -0 -0 -0 0 -0 -0 -0 -0 -0 -0 -0 -0 -0 -0 -0 -0 -0 0 -0 0 0 0 0 0 -0 0
0 0 -0 -0 0 0 0 0 0 0 -0 -0 -0 -0 0 0 0 0 -0 0 0 0 0 0 -0 -0 -0 0 -0 0 0 -0 0 -0 -0 -0 -0 -0 0 -0 -0 -0 -0 0 -0 0 0 -0 -0
0 -0 -0 -0 -0 0 0 0 -0 -0 -0 -0 -0 -0 0 0 0 0 0 0 0 0 0 0 0 -0 -0 0 0 1 -0 0 -0 -0 0 -0 -0 -0 -0 -0 -0 -0 0 -0 -0 -0 0 0 0
-0 -0 -0 -0 -0 0 -0 0 -0 -0 -0 -0 -0 -0 -0 0 0 0 0 0 0 0 0 0 0 0 0 0 0 0 0 0 0 -0 -0 -0 -0 -0 -0 -0 0 -0 0 0 -0 0 0 0 0
-0 -0 -0 -0 0 0 -0 -0 -0 -0 -0 -0 -0 -0 -0 -0 0 0 -0 0 0 0 0 0 0 0 0 0 0 0 0 0 0 -0 0 -0 -0 -0 -0 -0 0 0 0 0 0 -0 0 -0 0
-0 0 -0 0 -0 0 -0 -0 -0 -0 -0 -0 0 -0 0 0 -0 0 0 -0 -0 -0 -0 -0 0 0 0 0 0 0 0 0 0 0 -0 -0 0 -0 -0 -0 0 0 0 0 0 -0 0 0 -0
0 -0 0 0 0 -0 -0 -0 -0 -0 -0 -0 -0 0 0 0 0 0 -0 -0 -0 -0 -0 -0 0 0 0 0 0 0 0 0 0 0 0 -0 -0 -0 -0 0 -0 -0 -0 0 -0 -0 -0 -0 -0
0 0 0 0 0 -0 -0 -0 -0 -0 -0 -0 -0 0 0 0 0 0 0 0 0 -0 -0 -0 0 -0 0 0 0 1 1 0 0 0 0 -0 -0 -0 -0 -0 -0 -0 -0 -0 0 0 0 -0 -0
-0 -0 0 -0 -0 -0 -0 -0 0 0 0 0 -0 -0 -0 -0 -0 -0 -0 -0 0 0 0 -0 -0 0 0 1 1 1 0 0 0 -0 -0 -0 -0 -0 -0 -0 -0 -0 -0 -0 -0 0 -0 -0 -0
0 0 0 -0 -0 0 -0 0 -0 0 0 -0 -0 -0 -0 -0 -0 -0 -0 0 -0 0 0 0 -0 0 1 1 1 1 1 0 0 -0 -0 0 0 0 -0 -0 -0 -0 0 -0 0 -0 0 0 0
0 0 0 0 0 -0 -0 0 0 0 0 -0 0 0 -0 -0 -1 -0 -0 0 0 0 0 0 0 0 0 1 0 0 0 0 0 0 0 0 0 0 0 0 0 -0 -0 -0 0 0 -0 0 -0
0 0 -0 -0 -0 0 0 0 0 0 -0 0 0 0 -0 -0 -1 -0 -0 0 -0 -0 -0 0 0 0 1 1 1 1 0 0 0 0 0 0 0 0 0 0 0 0 0 -0 -0 -0 -0 -0 0
-0 0 -0 -0 0 0 -0 0 0 -0 0 0 -0 0 0 -0 -0 -0 0 -0 0 0 0 0 0 0 1 1 1 1 1 1 0 0 0 0 1 0 0 1 1 0 0 0 0 0 0 -0 0
-0 -0 0 0 0 0 0 0 0 0 -0 0 0 0 -0 0 0 -0 0 0 1 0 1 1 0 0 0 1 1 1 1 1 0 0 0 0 0 0 1 1 1 1 0 1 1 0 0 0 0
0 0 -0 0 0 0 0 0 -0 0 -0 0 -0 0 0 0 -0 -0 0 0 0 0 0 1 1 1 0 0 0 0 1 1 0 0 0 0 0 0 0 0 1 1 1 1 1 1 0 0 0
0 -0 0 0 0 0 0 0 0 0 0 0 -0 -0 0 -0 0 0 0 0 0 0 0 0 1 1 0 -0 -0 0 1 1 0 0 0 0 0 0 0 1 1 1 1 1 1 1 1 1 1
0 0 0 -0 -0 0 -0 0 0 0 -0 0 0 0 0 0 0 0 0 0 1 1 1 1 1 1 0 0 0 0 0 0 0 0 0 0 0 1 1 1 1 1 1 1 1 1 1 1 1
-0 -0 -0 0 0 -0 0 0 -0 0 0 0 1 1 1 1 1 1 1 1 1 2 1 1 1 1 1 1 0 0 0 0 0 0 0 0 1 1 1 1 1 1 1 1 1 1 1 1 1
Wind_Speed_500mb
26 17 5 10 7 9 14 21 25 22 30 34 24 28 40 40 25 24 34 49 50 42 38 39 39 40 40 41 41 40 39 38 35 31 28 26 26 24 23 23 22 22 21 22 24 27 33 35 33
0 12 9 10 4 19 7 21 25 27 22 22 19 20 36 35 36 43 41 46 46 44 39 40 44 44 42 39 35 33 31 28 27 27 25 22 20 15 19 16 19 22 21 21 23 25 29 34 30
4 13 17 6 16 23 20 19 24 21 23 20 18 27 22 21 24 23 47 45 45 43 42 45 46 44 38 34 30 28 25 23 24 24 23 17 14 14 15 13 18 19 20 21 23 23 25 31 24
10 16 15 20 25 24 20 14 12 23 29 17 27 29 24 17 16 36 43 46 41 41 36 48 43 37 33 29 26 22 22 19 18 18 18 16 15 8 12 18 22 23 24 22 20 22 21 23 21
18 26 22 25 29 23 17 21 25 31 32 25 39 36 28 20 38 42 41 39 38 36 35 40 39 35 31 27 23 19 21 23 20 20 18 16 13 12 14 17 17 16 19 21 18 18 19 21 18
24 4 21 24 26 28 18 15 30 23 31 35 40 35 23 36 42 39 37 37 33 33 33 32 36 30 27 24 23 21 22 20 16 18 21 21 25 19 13 13 15 15 14 14 13 13 13 13 11
4 17 28 34 28 26 19 33 22 18 31 25 29 30 28 39 38 38 35 32 37 33 34 28 26 27 25 25 23 23 21 18 18 18 18 13 19 20 15 6 9 9 8 9 8 7 5 4 5
17 15 39 32 28 29 24 22 23 24 23 16 20 16 39 42 41 36 39 36 29 33 26 27 27 26 24 23 25 24 22 21 22 15 9 26 25 11 17 9 9 9 4 3 3 3 3 4 5
11 16 25 30 34 20 23 28 21 19 23 18 13 38 48 45 40 38 38 32 29 29 28 27 26 26 25 21 21 24 22 22 20 19 20 18 14 15 22 11 5 7 7 5 5 5 6 5 6
8 23 21 24 28 24 31 26 17 15 28 24 37 46 49 44 39 38 34 32 29 29 28 26 25 24 25 26 21 20 21 22 22 20 16 22 26 22 29 23 22 21 16 16 12 12 13 5 13
14 19 22 19 23 27 25 15 31 21 26 29 39 46 45 40 34 32 29 27 29 28 26 25 25 24 24 28 18 28 28 24 24 22 4 14 17 24 37 32 26 20 30 22 23 20 13 15 16
28 13 14 13 11 15 22 25 32 32 32 33 38 43 41 35 31 28 25 26 27 27 27 25 27 26 24 25 20 22 27 31 30 30 28 21 24 24 20 24 29 33 28 27 28 26 29 15 18
16 12 20 14 11 22 13 24 25 30 34 37 38 38 35 31 27 24 22 22 23 26 26 26 25 24 23 17 24 20 26 27 19 20 25 25 26 27 26 26 30 28 27 31 29 30 30 28 25
12 7 22 22 15 15 19 20 20 27 34 36 35 35 31 27 26 25 23 22 22 21 23 24 25 26 25 28 22 33 38 31 28 21 35 31 35 34 35 31 30 33 36 27 30 31 37 31 29
14 25 22 14 14 16 4 16 28 34 35 35 33 32 29 28 29 28 26 22 21 19 20 25 26 27 29 27 27 31 29 31 28 27 24 31 34 36 35 35 29 24 26 34 31 31 41 33 28
26 15 15 21 12 11 27 8 31 35 35 34 33 30 28 30 30 26 24 23 19 25 22 20 21 25 28 26 26 28 18 24 23 26 28 30 29 29 33 36 34 30 28 24 22 23 31 33 33
18 22 13 23 14 5 15 22 31 34 33 34 35 34 32 32 30 28 27 22 23 22 21 21 22 22 28 28 26 24 31 14 22 24 25 17 16 20 27 30 32 29 30 21 21 26 27 32 33
15 8 17 3 25 8 12 24 30 32 31 33 32 36 35 34 32 31 29 27 23 22 23 23 25 26 28 25 28 26 34 33 28 27 32 26 29 27 26 25 30 30 24 23 26 30 36 36 34
14 12 6 11 11 11 10 21 27 33 29 36 39 36 37 38 32 31 30 26 23 22 23 25 28 26 29 27 29 30 28 29 27 24 26 27 36 34 32 27 27 31 34 29 27 29 31 37 34
15 16 9 10 10 20 20 16 19 27 24 29 41 42 37 40 37 32 33 33 27 24 24 25 27 28 32 28 28 29 28 29 31 27 27 25 21 22 30 30 24 26 27 25 24 20 28 29 28
28 20 15 22 17 22 10 28 24 15 13 21 32 45 45 43 41 35 26 29 19 25 24 24 26 28 30 30 32 32 29 31 23 24 25 26 27 22 25 28 27 25 29 24 28 29 30 27 23
12 1 4 10 24 16 18 6 27 27 22 19 32 40 48 44 45 40 21 22 19 13 17 21 23 25 24 29 31 31 29 25 20 23 26 28 33 32 28 26 27 26 29 29 29 29 27 26 26
6 14 10 7 26 22 20 15 18 29 32 21 25 34 36 45 45 47 24 22 14 7 10 15 18 18 20 20 25 26 29 26 24 24 31 30 34 35 33 30 27 30 30 34 32 34 35 35 32
13 15 14 27 27 22 9 17 21 25 29 23 15 16 26 43 45 41 39 21 14 13 10 11 10 11 12 14 20 23 29 28 26 27 26 31 30 33 33 35 34 30 31 30 33 35 39 36 35
23 36 21 19 16 5 18 17 15 26 17 21 22 17 13 12 37 32 33 26 12 7 7 10 8 3 7 10 13 16 19 21 22 19 21 29 34 30 31 36 40 38 36 35 37 39 36 39 38
36 38 17 20 19 12 16 4 8 16 27 25 25 24 24 22 23 22 21 21 19 16 13 12 10 7 3 3 4 5 7 9 14 18 22 15 18 20 26 31 41 41 41 40 39 39 41 36 40
16 29 28 24 17 12 17 16 44 30 25 27 29 30 29 30 29 25 18 19 24 26 18 14 12 9 5 2 2 5 9 11 12 20 20 16 20 19 29 32 35 40 45 42 41 41 43 41 41
26 29 18 19 25 13 8 15 19 28 30 26 29 31 28 29 22 21 23 27 27 24 19 15 10 7 3 2 6 7 7 8 9 11 12 14 20 27 29 31 32 34 38 41 42 43 43 43 44
28 25 23 21 21 5 22 12 21 12 31 26 27 31 29 25 27 27 27 25 23 19 14 10 7 5 4 5 5 4 4 8 11 13 17 19 21 22 24 30 27 29 31 33 34 38 42 42 46
36 32 39 16 9 21 19 7 5 9 4 28 33 29 24 24 29 25 23 20 18 15 13 8 5 3 7 9 13 14 13 13 15 18 17 18 19 19 19 20 20 22 24 28 30 33 33 36 43
Wind_Direction_500mb
39 28 315 261 278 87 30 53 43 58 65 48 47 79 72 38 38 100 134 134 143 143 154 145 147 145 139 137 136 136 140 139 141 140 141 141 131 132 127 123 128 127 124 124 121 114 117 113 111
73 284 255 267 205 93 96 37 57 54 61 95 43 59 74 56 89 115 127 139 139 137 140 150 149 144 141 142 138 138 144 149 149 140 136 140 136 138 133 129 130 129 125 128 123 119 122 126 124
24 265 274 356 17 44 54 51 78 69 41 35 106 45 48 104 98 112 133 139 138 137 139 153 149 152 150 146 146 142 144 139 146 149 140 137 132 137 130 127 131 134 128 126 125 121 119 114 123
285 229 247 53 67 64 64 66 92 79 84 54 135 87 84 114 106 132 137 138 138 140 142 146 149 149 156 156 152 145 148 147 148 142 139 138 129 118 123 140 136 137 134 122 125 120 118 123 119
261 273 83 67 72 65 67 57 53 60 45 36 97 95 94 104 125 134 136 141 142 141 145 150 152 153 155 155 155 152 140 133 130 125 122 112 93 93 101 139 138 138 143 143 137 126 123 127 122
265 317 72 70 66 68 52 72 97 94 107 98 104 101 90 127 134 137 139 145 140 140 144 157 158 161 162 161 158 148 142 132 125 128 123 120 115 106 95 115 144 146 138 140 136 133 134 142 145
294 74 80 80 77 68 47 34 61 80 74 80 133 108 125 143 141 141 140 143 149 142 148 153 155 162 164 156 150 146 145 140 136 132 165 165 186 173 130 115 125 134 142 147 147 138 145 172 169
304 99 88 83 75 71 72 75 37 75 85 112 123 140 153 149 145 144 146 144 137 146 150 152 157 152 150 147 153 150 153 160 158 162 178 216 226 244 165 168 167 163 163 167 174 173 215 274 310
242 69 70 66 79 93 81 78 71 92 73 67 97 135 146 150 148 150 149 146 144 153 154 157 158 160 157 165 165 161 171 182 188 234 255 245 230 243 193 209 214 235 223 229 248 253 262 289 335
55 72 65 44 77 77 70 76 109 119 104 96 92 112 138 145 155 152 161 152 160 159 163 161 165 167 169 176 189 175 182 193 205 253 282 269 247 231 214 213 260 260 260 264 274 289 276 274 260
20 92 93 56 46 73 92 77 42 85 100 123 132 137 145 147 156 157 158 160 166 166 169 173 168 175 175 188 173 198 203 211 256 239 310 250 275 241 234 234 244 263 256 253 266 284 290 256 241
107 90 69 57 83 93 75 83 62 65 79 116 132 143 147 154 163 159 162 162 168 173 178 181 185 185 191 208 199 213 222 228 255 243 248 268 255 242 261 241 256 256 252 248 232 253 212 241 252
94 112 110 99 123 90 103 70 90 86 105 119 130 142 149 162 160 163 164 163 176 182 186 190 192 197 201 216 205 205 232 229 247 250 253 249 248 234 254 246 239 247 236 242 231 238 239 241 244
110 258 119 135 118 123 127 132 120 112 123 125 138 142 152 147 153 152 158 168 175 183 191 194 197 203 201 213 224 222 235 229 252 249 257 257 253 248 247 252 261 247 242 234 241 244 225 233 236
194 169 152 133 139 131 169 155 110 140 139 138 140 146 144 149 147 150 150 155 163 172 185 194 199 208 207 217 225 233 251 248 252 259 260 254 249 255 251 253 254 251 254 243 231 238 222 220 230
215 248 148 128 154 161 126 228 132 151 149 150 150 148 155 154 157 159 162 157 159 177 172 184 198 208 215 213 227 242 255 249 251 260 264 276 257 259 255 252 254 248 254 248 229 233 219 222 233
210 202 124 145 168 238 155 149 142 164 161 159 159 158 163 167 165 169 165 173 173 184 178 187 203 208 217 222 223 233 246 267 247 240 256 267 262 277 272 263 258 258 248 249 231 202 219 224 226
192 88 142 214 134 201 183 133 154 179 176 166 172 164 172 175 182 177 180 180 182 190 196 200 205 211 224 222 234 234 262 265 262 260 265 279 276 284 281 266 254 248 249 242 242 218 205 217 230
11 301 254 102 98 234 216 150 177 173 188 172 176 176 181 181 180 184 187 193 192 199 208 214 212 215 217 227 239 234 240 249 247 251 274 279 272 274 278 265 263 245 250 255 249 237 239 236 231
262 252 134 121 185 258 150 231 142 159 194 197 185 176 187 184 178 189 197 194 196 205 212 218 217 215 226 231 241 253 260 265 267 275 274 277 276 272 264 264 250 250 243 240 233 234 252 248 228
233 255 106 135 182 242 243 228 155 138 187 197 207 185 186 185 184 194 197 204 201 203 217 224 221 213 220 228 240 243 243 249 261 259 257 258 266 267 264 259 256 236 248 235 243 238 236 243 229
314 129 145 235 243 171 248 131 198 158 141 184 192 196 187 188 193 202 176 192 193 219 204 225 226 221 224 225 232 240 243 251 260 263 264 253 252 257 261 256 254 241 234 237 240 248 239 243 241
80 234 262 290 282 272 185 259 150 165 143 145 168 189 203 193 194 201 184 184 178 191 231 212 218 221 215 233 242 239 253 253 262 257 257 256 264 264 263 252 248 245 238 235 228 237 244 241 240
311 217 216 235 246 260 156 268 33 334 116 127 141 182 219 202 185 203 207 214 235 265 249 213 217 230 227 237 243 249 239 245 248 252 258 274 268 260 264 250 255 243 241 237 242 244 237 237 238
227 247 218 220 272 355 233 272 88 196 95 118 138 145 161 193 161 196 204 211 217 194 174 168 186 228 249 231 238 246 254 253 255 267 277 279 278 265 251 262 246 248 242 231 237 244 236 239 238
211 251 283 300 279 186 158 339 108 50 112 124 136 138 135 150 148 166 177 176 160 146 139 136 133 131 162 239 278 274 261 261 261 292 283 284 271 272 275 260 259 244 241 248 238 241 241 240 241
219 241 287 310 222 248 183 344 156 147 125 134 136 137 141 132 138 131 138 147 141 123 123 121 114 126 142 221 303 330 356 332 280 293 292 283 284 277 271 271 263 254 246 243 249 245 245 236 237
265 293 210 222 253 242 101 333 152 173 152 137 143 144 139 127 129 129 123 124 124 122 117 110 106 100 93 303 309 324 315 337 335 318 314 293 277 271 274 274 272 262 255 255 253 252 250 246 243
204 244 259 273 269 209 226 93 51 11 143 140 140 144 148 143 132 127 120 119 118 116 111 101 81 48 9 4 337 326 17 349 326 307 308 311 308 300 296 293 280 274 266 264 262 259 257 253 250
251 209 231 219 134 355 306 137 210 342 68 141 138 147 144 145 145 137 125 118 113 104 86 67 62 11 355 330 328 319 321 320 315 305 292 298 300 303 301 295 289 281 284 278 273 270 266 259 258
Wind_Speed_850mb
26 17 5 10 7 9 14 21 25 22 30 34 24 28 40 40 25 24 34 49 50 42 38 39 39 40 40 41 41 40 39 38 35 31 28 26 26 24 23 23 22 22 21 22 24 27 33 35 33
0 12 9 10 4 19 7 21 25 27 22 22 19 20 36 35 36 43 41 46 46 44 39 40 44 44 42 39 35 33 31 28 27 27 25 22 20 15 19 16 19 22 21 21 23 25 29 34 30
4 13 17 6 16 23 20 19 24 21 23 20 18 27 22 21 24 23 47 45 45 43 42 45 46 44 38 34 30 28 25 23 24 24 23 17 14 14 15 13 18 19 20 21 23 23 25 31 24
10 16 15 20 25 24 20 14 12 23 29 17 27 29 24 17 16 36 43 46 41 41 36 48 43 37 33 29 26 22 22 19 18 18 18 16 15 8 12 18 22 23 24 22 20 22 21 23 21
18 26 22 25 29 23 17 21 25 31 32 25 39 36 28 20 38 42 41 39 38 36 35 40 39 35 31 27 23 19 21 23 20 20 18 16 13 12 14 17 17 16 19 21 18 18 19 21 18
24 4 21 24 26 28 18 15 30 23 31 35 40 35 23 36 42 39 37 37 33 33 33 32 36 30 27 24 23 21 22 20 16 18 21 21 25 19 13 13 15 15 14 14 13 13 13 13 11
4 17 28 34 28 26 19 33 22 18 31 25 29 30 28 39 38 38 35 32 37 33 34 28 26 27 25 25 23 23 21 18 18 18 18 13 19 20 15 6 9 9 8 9 8 7 5 4 5
17 15 39 32 28 29 24 22 23 24 23 16 20 16 39 42 41 36 39 36 29 33 26 27 27 26 24 23 25 24 22 21 22 15 9 26 25 11 17 9 9 9 4 3 3 3 3 4 5
11 16 25 30 34 20 23 28 21 19 23 18 13 38 48 45 40 38 38 32 29 29 28 27 26 26 25 21 21 24 22 22 20 19 20 18 14 15 22 11 5 7 7 5 5 5 6 5 6
8 23 21 24 28 24 31 26 17 15 28 24 37 46 49 44 39 38 34 32 29 29 28 26 25 24 25 26 21 20 21 22 22 20 16 22 26 22 29 23 22 21 16 16 12 12 13 5 13
14 19 22 19 23 27 25 15 31 21 26 29 39 46 45 40 34 32 29 27 29 28 26 25 25 24 24 28 18 28 28 24 24 22 4 14 17 24 37 32 26 20 30 22 23 20 13 15 16
28 13 14 13 11 15 22 25 32 32 32 33 38 43 41 35 31 28 25 26 27 27 27 25 27 26 24 25 20 22 27 31 30 30 28 21 24 24 20 24 29 33 28 27 28 26 29 15 18
16 12 20 14 11 22 13 24 25 30 34 37 38 38 35 31 27 24 22 22 23 26 26 26 25 24 23 17 24 20 26 27 19 20 25 25 26 27 26 26 30 28 27 31 29 30 30 28 25
12 7 22 22 15 15 19 20 20 27 34 36 35 35 31 27 26 25 23 22 22 21 23 24 25 26 25 28 22 33 38 31 28 21 35 31 35 34 35 31 30 33 36 27 30 31 37 31 29
14 25 22 14 14 16 4 16 28 34 35 35 33 32 29 28 29 28 26 22 21 19 20 25 26 27 29 27 27 31 29 31 28 27 24 31 34 36 35 35 29 24 26 34 31 31 41 33 28
26 15 15 21 12 11 27 8 31 35 35 34 33 30 28 30 30 26 24 23 19 25 22 20 21 25 28 26 26 28 18 24 23 26 28 30 29 29 33 36 34 30 28 24 22 23 31 33 33
18 22 13 23 14 5 15 22 31 34 33 34 35 34 32 32 30 28 27 22 23 22 21 21 22 22 28 28 26 24 31 14 22 24 25 17 16 20 27 30 32 29 30 21 21 26 27 32 33
15 8 17 3 25 8 12 24 30 32 31 33 32 36 35 34 32 31 29 27 23 22 23 23 25 26 28 25 28 26 34 33 28 27 32 26 29 27 26 25 30 30 24 23 26 30 36 36 34
14 12 6 11 11 11 10 21 27 33 29 36 39 36 37 38 32 31 30 26 23 22 23 25 28 26 29 27 29 30 28 29 27 24 26 27 36 34 32 27 27 31 34 29 27 29 31 37 34
15 16 9 10 10 20 20 16 19 27 24 29 41 42 37 40 37 32 33 33 27 24 24 25 27 28 32 28 28 29 28 29 31 27 27 25 21 22 30 30 24 26 27 25 24 20 28 29 28
28 20 15 22 17 22 10 28 24 15 13 21 32 45 45 43 41 35 26 29 19 25 24 24 26 28 30 30 32 32 29 31 23 24 25 26 27 22 25 28 27 25 29 24 28 29 30 27 23
12 1 4 10 24 16 18 6 27 27 22 19 32 40 48 44 45 40 21 22 19 13 17 21 23 25 24 29 31 31 29 25 20 23 26 28 33 32 28 26 27 26 29 29 29 29 27 26 26
6 14 10 7 26 22 20 15 18 29 32 21 25 34 36 45 45 47 24 22 14 7 10 15 18 18 20 20 25 26 29 26 24 24 31 30 34 35 33 30 27 30 30 34 32 34 35 35 32
13 15 14 27 27 22 9 17 21 25 29 23 15 16 26 43 45 41 39 21 14 13 10 11 10 11 12 14 20 23 29 28 26 27 26 31 30 33 33 35 34 30 31 30 33 35 39 36 35
23 36 21 19 16 5 18 17 15 26 17 21 22 17 13 12 37 32 33 26 12 7 7 10 8 3 7 10 13 16 19 21 22 19 21 29 34 30 31 36 40 38 36 35 37 39 36 39 38
36 38 17 20 19 12 16 4 8 16 27 25 25 24 24 22 23 22 21 21 19 16 13 12 10 7 3 3 4 5 7 9 14 18 22 15 18 20 26 31 41 41 41 40 39 39 41 36 40
16 29 28 24 17 12 17 16 44 30 25 27 29 30 29 30 29 25 18 19 24 26 18 14 12 9 5 2 2 5 9 11 12 20 20 16 20 19 29 32 35 40 45 42 41 41 43 41 41
26 29 18 19 25 13 8 15 19 28 30 26 29 31 28 29 22 21 23 27 27 24 19 15 10 7 3 2 6 7 7 8 9 11 12 14 20 27 29 31 32 34 38 41 42 43 43 43 44
28 25 23 21 21 5 22 12 21 12 31 26 27 31 29 25 27 27 27 25 23 19 14 10 7 5 4 5 5 4 4 8 11 13 17 19 21 22 24 30 27 29 31 33 34 38 42 42 46
36 32 39 16 9 21 19 7 5 9 4 28 33 29 24 24 29 25 23 20 18 15 13 8 5 3 7 9 13 14 13 13 15 18 17 18 19 19 19 20 20 22 24 28 30 33 33 36 43
Wind_Direction_850mb
39 28 315 261 278 87 30 53 43 58 65 48 47 79 72 38 38 100 134 134 143 143 154 145 147 145 139 137 136 136 140 139 141 140 141 141 131 132 127 123 128 127 124 124 121 114 117 113 111
73 284 255 267 205 93 96 37 57 54 61 95 43 59 74 56 89 115 127 139 139 137 140 150 149 144 141 142 138 138 144 149 149 140 136 140 136 138 133 129 130 129 125 128 123 119 122 126 124
24 265 274 356 17 44 54 51 78 69 41 35 106 45 48 104 98 112 133 139 138 137 139 153 149 152 150 146 146 142 144 139 146 149 140 137 132 137 130 127 131 134 128 126 125 121 119 114 123
285 229 247 53 67 64 64 66 92 79 84 54 135 87 84 114 106 132 137 138 138 140 142 146 149 149 156 156 152 145 148 147 148 142 139 138 129 118 123 140 136 137 134 122 125 120 118 123 119
261 273 83 67 72 65 67 57 53 60 45 36 97 95 94 104 125 134 136 141 142 141 145 150 152 153 155 155 155 152 140 133 130 125 122 112 93 93 101 139 138 138 143 143 137 126 123 127 122
265 317 72 70 66 68 52 72 97 94 107 98 104 101 90 127 134 137 139 145 140 140 144 157 158 161 162 161 158 148 142 132 125 128 123 120 115 106 95 115 144 146 138 140 136 133 134 142 145
294 74 80 80 77 68 47 34 61 80 74 80 133 108 125 143 141 141 140 143 149 142 148 153 155 162 164 156 150 146 145 140 136 132 165 165 186 173 130 115 125 134 142 147 147 138 145 172 169
304 99 88 83 75 71 72 75 37 75 85 112 123 140 153 149 145 144 146 144 137 146 150 152 157 152 150 147 153 150 153 160 158 162 178 216 226 244 165 168 167 163 163 167 174 173 215 274 310
242 69 70 66 79 93 81 78 71 92 73 67 97 135 146 150 148 150 149 146 144 153 154 157 158 160 157 165 165 161 171 182 188 234 255 245 230 243 193 209 214 235 223 229 248 253 262 289 335
55 72 65 44 77 77 70 76 109 119 104 96 92 112 138 145 155 152 161 152 160 159 163 161 165 167 169 176 189 175 182 193 205 253 282 269 247 231 214 213 260 260 260 264 274 289 276 274 260
20 92 93 56 46 73 92 77 42 85 100 123 132 137 145 147 156 157 158 160 166 166 169 173 168 175 175 188 173 198 203 211 256 239 310 250 275 241 234 234 244 263 256 253 266 284 290 256 241
107 90 69 57 83 93 75 83 62 65 79 116 132 143 147 154 163 159 162 162 168 173 178 181 185 185 191 208 199 213 222 228 255 243 248 268 255 242 261 241 256 256 252 248 232 253 212 241 252
94 112 110 99 123 90 103 70 90 86 105 119 130 142 149 162 160 163 164 163 176 182 186 190 192 197 201 216 205 205 232 229 247 250 253 249 248 234 254 246 239 247 236 242 231 238 239 241 244
110 258 119 135 118 123 127 132 120 112 123 125 138 142 152 147 153 152 158 168 175 183 191 194 197 203 201 213 224 222 235 229 252 249 257 257 253 248 247 252 261 247 242 234 241 244 225 233 236
194 169 152 133 139 131 169 155 110 140 139 138 140 146 144 149 147 150 150 155 163 172 185 194 199 208 207 217 225 233 251 248 252 259 260 254 249 255 251 253 254 251 254 243 231 238 222 220 230
215 248 148 128 154 161 126 228 132 151 149 150 150 148 155 154 157 159 162 157 159 177 172 184 198 208 215 213 227 242 255 249 251 260 264 276 257 259 255 252 254 248 254 248 229 233 219 222 233
210 202 124 145 168 238 155 149 142 164 161 159 159 158 163 167 165 169 165 173 173 184 178 187 203 208 217 222 223 233 246 267 247 240 256 267 262 277 272 263 258 258 248 249 231 202 219 224 226
192 88 142 214 134 201 183 133 154 179 176 166 172 164 172 175 182 177 180 180 182 190 196 200 205 211 224 222 234 234 262 265 262 260 265 279 276 284 281 266 254 248 249 242 242 218 205 217 230
11 301 254 102 98 234 216 150 177 173 188 172 176 176 181 181 180 184 187 193 192 199 208 214 212 215 217 227 239 234 240 249 247 251 274 279 272 274 278 265 263 245 250 255 249 237 239 236 231
262 252 134 121 185 258 150 231 142 159 194 197 185 176 187 184 178 189 197 194 196 205 212 218 217 215 226 231 241 253 260 265 267 275 274 277 276 272 264 264 250 250 243 240 233 234 252 248 228
233 255 106 135 182 242 243 228 155 138 187 197 207 185 186 185 184 194 197 204 201 203 217 224 221 213 220 228 240 243 243 249 261 259 257 258 266 267 264 259 256 236 248 235 243 238 236 243 229
314 129 145 235 243 171 248 131 198 158 141 184 192 196 187 188 193 202 176 192 193 219 204 225 226 221 224 225 232 240 243 251 260 263 264 253 252 257 261 256 254 241 234 237 240 248 239 243 241
80 234 262 290 282 272 185 259 150 165 143 145 168 189 203 193 194 201 184 184 178 191 231 212 218 221 215 233 242 239 253 253 262 257 257 256 264 264 263 252 248 245 238 235 228 237 244 241 240
311 217 216 235 246 260 156 268 33 334 116 127 141 182 219 202 185 203 207 214 235 265 249 213 217 230 227 237 243 249 239 245 248 252 258 274 268 260 264 250 255 243 241 237 242 244 237 237 238
227 247 218 220 272 355 233 272 88 196 95 118 138 145 161 193 161 196 204 211 217 194 174 168 186 228 249 231 238 246 254 253 255 267 277 279 278 265 251 262 246 248 242 231 237 244 236 239 238
211 251 283 300 279 186 158 339 108 50 112 124 136 138 135 150 148 166 177 176 160 146 139 136 133 131 162 239 278 274 261 261 261 292 283 284 271 272 275 260 259 244 241 248 238 241 241 240 241
219 241 287 310 222 248 183 344 156 147 125 134 136 137 141 132 138 131 138 147 141 123 123 121 114 126 142 221 303 330 356 332 280 293 292 283 284 277 271 271 263 254 246 243 249 245 245 236 237
265 293 210 222 253 242 101 333 152 173 152 137 143 144 139 127 129 129 123 124 124 122 117 110 106 100 93 303 309 324 315 337 335 318 314 293 277 271 274 274 272 262 255 255 253 252 250 246 243
204 244 259 273 269 209 226 93 51 11 143 140 140 144 148 143 132 127 120 119 118 116 111 101 81 48 9 4 337 326 17 349 326 307 308 311 308 300 296 293 280 274 266 264 262 259 257 253 250
251 209 231 219 134 355 306 137 210 342 68 141 138 147 144 145 145 137 125 118 113 104 86 67 62 11 355 330 328 319 321 320 315 305 292 298 300 303 301 295 289 281 284 278 273 270 266 259 258